User: anonymous
Location: Bangkok
(13.7500°N, 100.5170°E)
Time: 13:23:59
(UTC+07:00)
Language:

Cosmos 1802 Rocket - Orbit

View from above orbital plane
View from above orbital plane
View from above satellite
View from above satellite

Ground track
Ground track

The orbit data is extracted from the following two-line orbital elements,

1 17160U 86093B   14292.82715152  .00000121  00000-0  11184-3 0  1927
2 17160 082.9285 064.8753 0038148 336.9187 132.3429 13.74524730399422
Epoch (UTC): 19 October 2014 19:51:05
Eccentricity: 0.0038148
inclination: 82.9285°
perigee height: 955 km
apogee height: 1011 km
right ascension of ascending node: 64.8753°
argument of perigee: 336.9187°
revolutions per day: 13.74524730
mean anomaly at epoch: 132.3429°
orbit number at epoch: 39942

The dashed part of the orbit path shows where the satellite is in the earth's shadow,  

DLR